This is the latest recevied weather packets stored in our database for station/object W4MLN-1. If no packets are shown the sender has not sent any weather packets the latest 10 day(s).
| Time | Temp. | Humidity | Pressure | Rain* | Wind** | Luminosity | Snow |
|---|---|---|---|---|---|---|---|
| 1777862527 | 4.44° C | 76% | 1016.7 hPa | 0 mm | - | 0 W/m² | - |
| 1777862228 | 4.44° C | 76% | 1016.6 hPa | 0 mm | - | 0 W/m² | - |
| 1777861927 | 5° C | 75% | 1016.6 hPa | 0 mm | - | 0 W/m² | - |
| 1777861627 | 5° C | 73% | 1016.7 hPa | 0 mm | - | 0 W/m² | - |
| 1777861327 | 5° C | 73% | 1016.7 hPa | 0 mm | - | 0 W/m² | - |
| 1777861025 | 5.56° C | 72% | 1016.7 hPa | 0 mm | - | 0 W/m² | - |
| 1777860722 | 5.56° C | 73% | 1016.7 hPa | 0 mm | - | 0 W/m² | - |
| 1777860421 | 5.56° C | 70% | 1016.7 hPa | 0 mm | - | 0 W/m² | - |
| 1777860122 | 6.11° C | 69% | 1016.5 hPa | 0 mm | - | 0 W/m² | - |
| 1777859822 | 6.11° C | 68% | 1016.5 hPa | 0 mm | - | 0 W/m² | - |
| 1777859522 | 6.11° C | 66% | 1016.5 hPa | 0 mm | - | 0 W/m² | - |
| 1777859223 | 6.11° C | 68% | 1016.5 hPa | 0 mm | - | 0 W/m² | - |
| 1777858922 | 6.11° C | 65% | 1016.2 hPa | 0 mm | - | 0 W/m² | - |
| 1777858623 | 6.67° C | 65% | 1016.1 hPa | 0 mm | - | 0 W/m² | - |
| 1777858323 | 6.67° C | 63% | 1016.1 hPa | 0 mm | - | 0 W/m² | - |
| 1777858022 | 6.67° C | 64% | 1016.1 hPa | 0 mm | - | 0 W/m² | - |
| 1777857720 | 6.67° C | 63% | 1016.2 hPa | 0 mm | - | 0 W/m² | - |
| 1777857420 | 7.22° C | 63% | 1016.1 hPa | 0 mm | - | 0 W/m² | - |
| 1777857117 | 7.22° C | 62% | 1016.1 hPa | 0 mm | - | 0 W/m² | - |
| 1777856816 | 7.22° C | 63% | 1016 hPa | 0 mm | - | 0 W/m² | - |
| 1777856517 | 7.78° C | 60% | 1015.9 hPa | 0 mm | - | 0 W/m² | - |
| 1777856217 | 8.33° C | 59% | 1015.8 hPa | 0 mm | - | 0 W/m² | - |
| 1777855917 | 8.89° C | 55% | 1015.8 hPa | 0 mm | - | 0 W/m² | - |
| 1777855617 | 9.44° C | 51% | 1015.8 hPa | 0 mm | - | 0 W/m² | - |
| 1777855318 | 9.44° C | 48% | 1015.8 hPa | 0 mm | - | 0 W/m² | - |
* Rain latest hour (hover to see other rain measurements)
** Current wind speed in m/s (hover to see current wind gust speed)